Wind_Speed
25 24 23 23 23 23 23 21 21 20 18 16 16 15 15 16 16 15 15 14 14 14 12 11 10 10 9 7 8 9 8 13 14 15 15 16 16 16 15 14 15 16 18
26 25 24 24 23 22 21 20 19 19 19 17 15 15 14 14 15 15 14 14 14 13 13 12 10 10 8 7 7 9 10 14 15 14 16 16 15 16 14 12 14 16 17
22 25 24 24 23 21 19 19 18 17 17 17 15 14 13 13 13 13 12 12 12 13 13 13 12 9 9 10 11 11 14 16 15 14 14 13 15 13 13 11 15 16 15
23 23 25 24 22 20 18 17 17 16 15 15 15 14 12 11 12 12 10 10 11 11 11 11 11 10 9 11 13 14 16 16 15 14 13 12 11 12 10 11 15 15 15
23 22 24 24 22 19 17 17 16 15 14 13 13 13 12 10 10 10 10 8 8 10 9 9 9 9 9 11 14 16 16 16 17 16 14 9 9 10 10 12 14 14 15
20 21 23 24 22 20 17 17 16 15 13 12 11 12 12 11 9 8 7 8 6 7 7 7 7 8 11 11 15 16 15 17 15 14 13 9 8 10 11 13 14 13 14
18 21 24 25 23 20 18 16 15 15 13 12 11 10 10 10 9 8 7 7 6 5 6 6 7 9 11 12 14 16 18 18 14 11 11 9 9 10 12 13 13 13 14
15 20 22 23 23 21 18 16 15 14 13 12 11 10 9 8 7 7 7 7 5 5 5 6 7 8 11 13 14 17 18 15 14 12 11 8 8 11 12 13 12 13 13
13 16 19 21 21 19 17 15 15 14 13 12 11 10 9 7 6 6 6 5 5 5 5 6 7 7 10 12 14 18 17 14 14 13 12 9 9 11 11 12 11 11 12
13 13 15 19 21 20 18 16 15 14 13 12 12 10 9 8 7 7 7 6 4 5 5 6 7 6 7 11 14 18 19 17 13 15 14 10 9 10 11 12 12 11 12
14 13 15 17 18 19 18 17 15 15 15 15 14 11 10 9 8 6 5 4 4 5 6 6 7 6 8 8 11 19 22 19 13 13 15 11 9 9 10 11 12 12 11
19 15 16 19 18 19 19 18 17 16 16 15 13 12 13 11 11 10 8 6 6 4 5 6 7 7 8 8 9 16 23 20 14 9 11 11 9 10 10 10 12 12 11
16 16 15 17 18 18 19 19 18 16 15 15 14 13 13 13 12 12 8 5 5 6 5 7 8 8 7 9 8 13 17 20 17 10 13 14 12 10 11 10 11 12 12
19 16 14 14 15 14 16 17 16 15 15 16 14 14 15 15 12 13 9 7 6 8 8 8 8 9 9 10 10 9 16 22 20 16 14 14 14 13 13 11 12 12 12
22 16 16 14 14 13 15 16 15 14 14 16 16 16 16 15 16 16 14 9 8 9 10 8 9 11 10 11 10 11 11 19 24 21 19 19 15 14 13 14 13 14 13
23 21 18 16 13 13 13 14 16 15 14 16 17 16 18 20 19 20 22 20 13 13 13 13 9 11 10 12 12 10 11 15 23 20 18 18 17 15 14 15 15 15 14
23 22 20 16 12 11 11 12 14 13 14 15 14 15 15 19 21 24 23 22 16 12 16 15 13 11 10 12 10 11 10 14 19 20 21 21 22 17 18 17 17 16 16
24 22 21 18 14 13 12 10 12 13 14 14 11 13 15 13 17 21 21 21 19 17 17 18 16 14 13 11 9 10 9 8 15 15 17 20 21 18 17 19 19 18 18
24 24 21 18 14 14 11 8 9 9 11 13 12 12 13 14 13 18 19 17 17 18 18 18 17 15 15 13 11 8 8 8 8 10 13 18 17 15 16 17 21 20 20
25 26 23 19 18 14 9 10 11 11 13 15 16 15 16 15 15 18 19 18 15 17 18 20 19 16 15 13 13 10 7 10 9 11 13 13 15 14 16 19 21 21 22
27 27 26 23 16 15 11 13 13 13 13 14 16 16 18 18 17 18 18 18 18 18 21 20 19 18 18 16 15 12 9 9 9 11 14 13 15 16 17 20 19 20 25
28 31 26 17 16 14 13 14 14 12 15 16 19 20 23 21 19 19 21 21 20 21 22 22 24 23 20 21 16 11 8 12 11 10 12 12 16 18 19 19 22 21 25
30 21 27 15 12 11 11 11 11 12 15 16 19 20 20 23 22 22 23 22 22 22 23 23 25 25 22 22 21 12 7 7 8 9 11 11 13 16 19 20 23 22 23
20 20 5 11 10 9 7 8 8 9 10 11 15 16 17 20 21 22 20 19 21 22 24 24 24 23 25 21 22 20 10 6 6 6 5 5 10 16 18 21 21 21 23
16 23 15 13 10 6 4 4 5 9 10 14 14 14 16 17 17 23 23 19 19 22 23 24 26 26 25 25 24 23 22 17 13 10 7 7 13 16 17 18 18 19 20
17 18 15 12 6 4 1 1 4 10 12 11 7 9 13 10 11 16 18 17 16 20 23 25 25 24 22 24 25 23 21 21 18 14 14 9 15 20 17 16 16 16 17
Wind_Direction
169 160 155 148 145 146 144 143 138 132 128 121 119 118 120 122 125 128 131 134 142 143 144 137 131 121 126 129 132 140 138 137 131 125 125 122 120 118 111 116 121 121 115
162 163 159 153 148 144 146 143 139 134 132 127 123 121 122 124 127 127 128 133 140 145 146 143 134 121 124 138 137 138 140 138 135 130 132 130 127 119 105 118 121 122 119
167 166 164 159 152 146 146 146 142 141 138 133 129 126 123 121 127 125 126 126 130 135 142 143 137 128 116 128 131 131 136 137 135 137 139 132 129 121 115 121 124 127 119
169 169 168 164 157 149 147 149 149 148 147 141 132 130 126 124 128 127 126 126 130 136 142 145 142 134 121 127 131 135 138 139 137 138 140 135 131 132 123 128 132 130 128
167 171 170 165 163 159 156 154 155 155 152 147 138 135 134 135 131 133 131 129 132 136 142 147 147 140 136 135 143 143 146 149 143 136 146 128 145 141 137 138 138 134 134
174 173 172 169 169 165 163 158 156 160 157 152 147 143 139 138 131 135 137 131 133 144 148 149 155 151 146 145 152 151 156 155 152 142 144 143 153 153 148 146 145 137 139
174 179 176 176 172 169 164 160 162 165 165 163 156 146 142 145 143 143 142 138 141 148 155 151 158 153 152 156 159 158 155 154 154 163 154 139 155 160 153 150 147 143 143
165 166 179 181 178 171 164 166 171 172 172 172 163 155 150 150 150 153 156 150 155 158 169 169 162 154 157 160 166 169 160 161 155 164 159 158 159 167 157 156 153 152 149
161 164 171 184 183 176 171 173 177 180 181 180 174 170 162 159 159 166 165 164 167 178 174 197 172 166 168 167 171 183 173 171 173 171 176 182 173 173 171 169 165 160 156
175 182 182 182 187 186 181 182 182 183 185 186 188 185 178 180 181 185 183 180 187 209 196 196 197 186 178 172 184 188 185 173 176 184 180 179 185 182 183 177 173 169 166
177 182 190 185 189 191 190 189 187 188 194 197 195 195 199 197 191 195 212 214 208 209 222 216 209 210 189 189 189 197 193 192 199 195 181 190 198 187 192 185 178 176 174
180 182 189 190 185 188 194 195 190 192 198 203 202 204 213 209 201 193 201 228 222 212 236 229 225 223 213 202 191 199 202 197 198 205 178 203 199 192 192 196 188 186 182
187 179 179 185 189 194 201 201 198 200 205 209 204 209 216 218 214 204 196 200 243 266 231 241 238 235 227 215 213 194 202 204 203 198 197 210 203 204 204 201 202 195 191
201 198 191 196 196 200 208 212 212 210 210 211 212 218 222 220 214 222 210 218 238 247 249 243 241 238 238 226 206 191 205 207 212 211 198 206 221 219 215 208 210 206 200
210 211 204 201 208 213 214 221 217 221 222 224 222 225 225 222 217 220 224 243 278 251 244 247 247 235 242 242 218 210 204 214 214 222 223 212 213 216 221 215 214 213 209
213 216 209 210 217 219 219 219 222 224 236 227 224 225 229 229 235 238 242 249 263 255 241 242 250 239 244 237 237 229 214 210 214 224 236 224 210 221 228 220 220 221 217
200 206 205 208 216 219 207 209 215 228 223 228 238 232 225 246 243 237 238 238 253 261 240 241 248 240 229 220 226 227 225 218 215 220 229 227 225 232 228 220 225 227 225
200 206 209 212 213 210 208 204 210 219 231 237 243 240 262 256 255 243 243 246 249 248 244 240 239 236 223 215 209 209 211 205 199 219 216 224 225 221 227 225 227 230 231
206 207 214 216 214 214 203 212 226 228 248 254 246 247 252 257 253 240 249 250 250 244 236 226 228 227 223 213 205 203 215 219 207 212 218 226 222 231 225 234 226 228 232
209 209 211 209 215 215 224 227 243 257 268 269 265 262 260 256 255 243 243 247 245 237 224 220 219 225 213 199 200 204 204 218 217 220 230 228 230 229 239 231 230 230 234
204 209 208 206 215 217 208 231 240 256 264 270 270 269 271 258 256 256 251 249 247 233 227 222 220 222 213 206 211 209 222 229 223 226 222 232 238 240 239 233 230 244 237
220 212 206 201 206 219 225 236 247 255 255 263 266 266 269 256 252 253 254 250 249 237 229 224 214 217 220 211 209 208 207 222 223 221 232 247 254 251 255 250 249 254 237
227 228 193 189 210 209 236 240 259 269 270 271 269 264 261 259 259 258 259 249 243 238 227 226 220 219 217 214 207 201 195 211 186 212 230 244 258 262 261 258 255 249 242
212 242 32 211 193 207 227 248 267 280 284 289 283 276 261 253 253 250 248 246 239 233 230 225 223 224 219 216 211 212 215 181 186 188 191 228 266 274 264 260 258 249 246
174 204 212 181 200 213 242 278 339 321 320 308 293 278 274 262 255 243 240 240 234 229 224 222 222 223 220 223 223 225 226 230 229 241 236 260 292 293 278 263 253 246 248
161 192 173 169 162 244 350 31 359 346 344 341 332 311 301 258 245 221 222 235 234 225 222 220 221 224 224 226 227 230 231 225 228 229 239 237 276 284 279 265 243 242 245
Height
1534 1537 1539 1541 1544 1545 1545 1547 1547 1548 1550 1550 1551 1552 1553 1553 1553 1554 1556 1557 1559 1559 1560 1561 1561 1561 1563 1564 1566 1567 1567 1568 1570 1570 1572 1573 1574 1575 1576 1576 1577 1576 1578
1531 1536 1539 1541 1543 1545 1547 1548 1548 1549 1550 1551 1553 1553 1555 1554 1554 1555 1557 1558 1559 1560 1561 1562 1563 1563 1563 1564 1566 1568 1569 1569 1571 1572 1573 1575 1576 1577 1578 1578 1579 1579 1580
1532 1535 1538 1541 1543 1545 1547 1548 1548 1549 1551 1551 1553 1555 1556 1555 1556 1556 1558 1559 1560 1561 1562 1563 1564 1564 1564 1565 1567 1569 1570 1571 1572 1574 1575 1577 1578 1579 1580 1580 1581 1582 1582
1531 1535 1537 1540 1543 1544 1546 1548 1548 1549 1550 1551 1552 1554 1555 1556 1557 1556 1559 1560 1561 1562 1563 1564 1564 1565 1566 1566 1567 1570 1572 1573 1574 1576 1578 1579 1580 1581 1582 1582 1583 1584 1584
1530 1533 1535 1538 1541 1543 1545 1546 1547 1549 1549 1551 1552 1553 1554 1556 1557 1558 1559 1560 1561 1562 1563 1564 1566 1565 1567 1567 1568 1570 1573 1575 1576 1577 1578 1580 1581 1582 1583 1584 1585 1585 1586
1529 1531 1534 1537 1539 1541 1543 1545 1546 1548 1549 1550 1552 1553 1554 1555 1556 1558 1560 1560 1561 1562 1564 1565 1566 1566 1567 1568 1569 1571 1574 1576 1577 1578 1578 1580 1582 1583 1584 1585 1585 1586 1587
1528 1530 1533 1536 1538 1540 1542 1544 1545 1547 1548 1550 1552 1553 1554 1555 1556 1558 1559 1561 1562 1562 1564 1565 1566 1566 1567 1568 1569 1571 1573 1575 1577 1578 1579 1581 1583 1585 1585 1586 1587 1587 1588
1528 1529 1533 1535 1537 1539 1541 1543 1545 1546 1547 1549 1550 1552 1555 1556 1557 1558 1559 1560 1562 1562 1564 1565 1566 1567 1567 1569 1570 1572 1574 1576 1578 1579 1579 1581 1583 1585 1586 1587 1588 1588 1589
1528 1529 1531 1534 1536 1539 1541 1543 1544 1545 1548 1549 1550 1552 1554 1556 1557 1559 1560 1561 1561 1563 1563 1565 1565 1567 1568 1569 1571 1572 1575 1577 1577 1578 1579 1581 1583 1585 1586 1588 1589 1589 1590
1528 1529 1530 1532 1534 1538 1541 1542 1544 1546 1548 1549 1551 1552 1553 1555 1556 1558 1559 1560 1562 1563 1564 1565 1566 1566 1567 1569 1570 1572 1575 1577 1578 1579 1580 1581 1582 1584 1586 1587 1588 1589 1590
1525 1527 1529 1530 1532 1535 1538 1541 1543 1545 1547 1548 1550 1552 1553 1553 1555 1557 1559 1561 1561 1563 1564 1564 1565 1566 1566 1567 1569 1571 1573 1575 1578 1579 1580 1581 1582 1583 1585 1586 1588 1589 1590
1523 1525 1527 1527 1530 1533 1535 1538 1541 1543 1544 1546 1550 1551 1551 1552 1554 1556 1558 1560 1561 1561 1563 1565 1564 1566 1565 1565 1568 1570 1572 1575 1578 1579 1580 1582 1583 1584 1585 1586 1587 1588 1589
1526 1526 1526 1527 1530 1532 1534 1536 1538 1541 1543 1544 1547 1548 1549 1550 1553 1554 1556 1558 1560 1560 1562 1564 1565 1565 1565 1564 1566 1569 1571 1574 1577 1578 1576 1580 1583 1584 1584 1585 1587 1588 1588
1522 1524 1524 1526 1530 1532 1534 1536 1537 1539 1542 1544 1545 1547 1547 1548 1551 1553 1554 1557 1558 1560 1560 1562 1563 1564 1563 1563 1564 1566 1569 1571 1574 1576 1576 1578 1580 1582 1584 1584 1585 1587 1588
1525 1524 1524 1524 1527 1529 1531 1534 1536 1538 1540 1542 1543 1544 1545 1546 1548 1551 1553 1554 1556 1557 1558 1560 1562 1563 1562 1562 1562 1564 1566 1568 1570 1573 1575 1575 1577 1580 1582 1583 1584 1585 1587
1526 1526 1525 1524 1525 1527 1529 1530 1534 1536 1537 1537 1539 1541 1542 1544 1545 1547 1549 1551 1553 1554 1556 1557 1559 1560 1560 1561 1560 1562 1563 1565 1567 1573 1575 1576 1575 1577 1579 1580 1582 1584 1585
1525 1527 1525 1526 1527 1528 1529 1530 1531 1533 1535 1536 1537 1537 1538 1540 1541 1543 1545 1546 1549 1551 1551 1555 1556 1557 1558 1558 1558 1559 1560 1562 1566 1569 1571 1574 1574 1574 1575 1577 1579 1582 1583
1523 1524 1526 1525 1525 1527 1528 1528 1528 1531 1533 1534 1534 1534 1534 1535 1537 1539 1541 1543 1544 1546 1548 1550 1552 1554 1556 1556 1557 1557 1558 1560 1563 1566 1563 1571 1572 1570 1571 1574 1576 1578 1580
1518 1521 1523 1523 1524 1524 1527 1529 1528 1528 1531 1534 1531 1531 1531 1531 1532 1535 1537 1539 1540 1541 1544 1547 1549 1552 1553 1554 1556 1557 1558 1559 1560 1560 1563 1567 1568 1568 1568 1570 1572 1574 1576
1517 1517 1519 1520 1521 1521 1525 1528 1528 1524 1525 1528 1530 1529 1528 1528 1528 1530 1533 1535 1535 1536 1540 1543 1546 1549 1551 1552 1555 1557 1557 1558 1558 1558 1561 1562 1563 1564 1565 1567 1569 1571 1573
1512 1516 1514 1514 1518 1525 1523 1526 1526 1523 1522 1523 1524 1526 1525 1524 1524 1524 1527 1529 1531 1532 1536 1539 1543 1546 1548 1550 1553 1555 1555 1556 1555 1557 1559 1559 1561 1562 1563 1565 1567 1568 1570
1513 1509 1512 1514 1516 1518 1521 1522 1523 1521 1520 1520 1521 1522 1521 1519 1518 1519 1521 1524 1526 1528 1531 1535 1539 1541 1544 1547 1550 1553 1553 1556 1555 1555 1557 1557 1557 1558 1559 1562 1564 1564 1566
1514 1497 1498 1512 1518 1515 1519 1519 1519 1518 1515 1516 1516 1516 1515 1514 1514 1514 1515 1518 1521 1524 1526 1530 1534 1537 1540 1543 1547 1550 1551 1551 1551 1552 1553 1554 1555 1555 1556 1558 1559 1561 1562
1514 1514 1492 1514 1517 1515 1514 1515 1514 1512 1511 1510 1510 1509 1510 1509 1507 1508 1510 1512 1516 1519 1521 1525 1530 1533 1535 1538 1543 1545 1548 1548 1548 1550 1550 1550 1551 1552 1552 1553 1553 1555 1557
1496 1505 1515 1513 1513 1513 1511 1511 1510 1508 1506 1505 1505 1504 1504 1502 1501 1501 1504 1507 1510 1513 1516 1520 1525 1528 1531 1535 1538 1541 1544 1546 1546 1547 1545 1545 1547 1549 1549 1548 1549 1550 1552
1508 1511 1511 1510 1507 1512 1509 1510 1508 1506 1504 1502 1500 1500 1497 1494 1495 1497 1500 1503 1506 1509 1512 1516 1520 1524 1527 1530 1534 1537 1540 1541 1541 1542 1543 1541 1544 1547 1546 1545 1546 1547 1549